Wind_Speed
19 19 20 21 22 24 25 26 27 27 27 28 28 28 29 29 29 30 31 31 32 32 31 30 29 28 27 25 24 24 24 26 28 29 30 32 32 32 33 34 34 34
19 20 22 24 26 27 29 30 30 30 29 29 30 30 30 30 30 30 31 31 32 32 31 29 28 28 27 26 26 27 28 30 31 32 34 35 36 36 37 37 37 37
20 22 24 25 27 29 30 31 31 31 31 30 30 31 31 31 31 31 30 31 31 31 30 30 29 28 28 28 29 30 31 33 34 35 38 38 38 39 40 40 40 39
25 27 28 28 29 30 31 32 32 32 32 31 31 32 32 32 32 31 31 31 31 31 30 30 29 29 29 30 32 33 34 36 37 38 41 41 41 42 42 43 43 42
30 32 33 32 32 32 32 33 33 34 34 33 33 33 33 33 33 32 31 31 31 31 31 31 31 31 31 33 35 36 37 38 39 41 44 44 44 44 45 45 45 45
33 36 37 37 36 35 34 34 34 35 35 34 34 34 34 34 33 32 32 32 33 33 33 33 33 34 35 36 38 39 40 41 43 45 47 47 47 47 47 47 47 47
37 39 39 38 38 37 36 36 35 35 35 35 35 35 35 34 33 32 32 33 34 35 35 35 36 37 38 40 42 42 43 45 47 49 50 50 50 50 49 49 49 49
41 42 42 40 39 38 38 38 37 37 37 36 36 36 35 34 32 32 33 34 36 37 37 38 39 40 41 43 44 45 46 47 49 51 52 52 52 52 52 52 52 53
44 43 42 41 40 39 39 38 38 37 37 37 36 36 35 34 33 33 34 36 37 39 40 40 41 42 44 45 46 46 48 49 51 53 54 54 54 54 54 55 55 55
42 41 40 40 39 38 37 36 37 37 36 36 35 34 34 34 35 35 36 38 39 40 42 43 44 45 46 47 47 48 49 51 52 54 55 56 56 57 57 57 58 57
38 37 37 37 36 35 35 35 35 35 35 34 33 32 32 33 35 36 38 40 41 43 44 45 47 48 49 50 49 50 51 53 55 56 57 58 58 59 59 59 59 58
34 34 34 35 35 34 34 34 34 33 33 33 32 32 32 32 34 36 38 40 42 44 46 48 49 50 52 52 53 53 55 56 57 58 59 59 59 58 58 58 57 57
33 33 34 34 34 35 34 34 34 33 33 32 32 33 33 33 34 35 37 39 41 43 45 47 48 50 51 52 53 54 55 55 56 56 55 55 54 54 54 54 54 54
33 33 34 34 35 35 35 35 35 35 35 34 34 34 34 34 34 35 35 36 38 39 41 42 43 44 45 46 48 48 49 50 50 51 51 52 52 52 53 53 53 53
34 34 34 35 35 35 36 36 37 37 37 37 37 37 36 36 36 36 36 37 38 39 40 41 42 43 44 45 46 47 48 49 50 51 52 53 54 55 55 55 54 53
35 36 36 36 37 37 38 39 39 40 40 41 41 41 41 41 40 40 41 41 42 42 43 44 45 46 47 47 48 49 50 51 52 53 54 55 56 56 56 55 53 52
36 37 38 39 40 40 41 42 42 43 44 44 44 44 45 45 45 45 46 46 47 47 48 49 49 50 51 51 52 52 52 53 54 54 55 55 55 55 55 54 53 51
36 38 39 40 41 42 43 44 44 45 46 46 46 47 47 48 48 49 50 50 51 52 52 53 53 54 54 54 54 54 54 55 56 56 55 55 54 54 53 53 52 51
37 38 39 40 42 43 44 45 45 46 47 47 48 48 49 50 50 51 52 53 54 54 55 56 56 55 56 56 56 55 55 55 56 56 56 55 54 53 52 52 51 51
37 39 40 41 42 43 44 45 46 47 47 48 49 49 50 50 51 51 52 52 53 54 55 55 54 54 54 54 54 53 53 54 54 55 55 54 54 53 53 53 52 53
38 39 40 41 42 43 44 45 46 47 48 49 50 50 51 51 51 51 51 50 50 50 51 51 50 49 49 49 49 49 50 51 51 52 52 53 53 52 51 51 51 51
39 41 42 43 44 45 46 47 48 48 48 49 49 49 49 49 48 48 48 47 46 46 47 47 47 47 48 48 48 48 48 49 49 50 50 51 51 50 49 48 48 49
41 43 44 45 45 45 46 46 46 46 45 46 46 45 45 45 46 45 46 46 46 46 47 48 48 49 50 51 51 52 52 51 51 51 51 51 50 50 49 49 49 48
42 42 43 43 43 43 44 44 44 44 45 45 46 47 47 47 48 48 48 49 49 50 51 51 51 51 53 54 54 56 56 56 56 55 54 53 53 52 51 51 51 50
41 41 42 43 44 44 45 46 47 48 48 49 50 51 52 52 53 54 53 54 54 54 55 55 55 55 55 57 57 58 59 60 60 60 59 58 58 57 56 55 55 54
42 42 43 44 45 47 48 49 50 51 52 53 54 55 56 56 57 57 58 57 57 56 56 56 55 55 56 57 58 60 61 62 63 63 63 62 62 61 60 60 59 58
Wind_Direction
270 273 276 278 282 283 285 287 288 290 292 292 292 291 288 285 283 282 283 283 283 283 282 279 276 273 271 270 269 272 280 289 296 301 302 305 307 308 310 312 311 310
280 283 285 285 285 285 285 285 287 288 290 290 289 287 286 284 283 282 282 282 282 281 279 275 271 270 269 268 270 275 283 291 297 301 304 307 308 309 311 312 312 312
294 296 298 296 292 290 288 287 287 288 289 289 288 286 285 285 284 283 281 281 281 278 275 271 269 268 268 269 273 279 285 291 297 300 303 306 307 308 310 311 311 312
300 303 304 302 298 295 293 292 291 290 290 289 287 286 286 286 286 283 280 278 276 273 269 267 267 267 270 273 277 282 287 291 295 298 301 304 306 307 309 309 309 309
298 301 303 302 299 296 293 292 292 291 290 289 287 286 287 288 287 284 279 275 272 268 265 264 266 268 272 276 280 283 287 290 293 297 299 302 304 305 306 306 306 307
296 299 300 299 297 294 291 288 287 287 288 288 287 287 287 289 289 284 278 274 270 267 265 266 267 270 274 277 280 283 287 290 293 296 298 301 302 302 303 303 303 304
298 300 300 297 294 292 289 286 284 284 285 285 285 285 285 287 287 283 278 273 269 267 266 268 270 273 277 279 282 285 288 291 293 295 297 299 300 301 301 301 300 301
296 298 297 295 292 290 288 286 285 284 284 283 283 283 282 281 280 279 275 271 269 267 268 270 272 276 279 281 283 285 288 290 292 293 296 297 298 299 299 299 299 300
291 292 292 290 288 285 284 283 283 283 283 283 284 283 280 277 274 273 272 269 267 267 268 270 273 276 279 280 282 284 286 288 290 292 294 295 296 297 297 297 298 299
288 287 286 284 282 281 280 280 281 283 284 286 286 285 281 276 272 270 270 269 268 267 267 269 272 274 276 278 280 282 284 286 288 289 291 292 293 294 295 295 296 297
285 284 282 281 281 281 282 283 284 286 287 288 288 286 283 277 273 269 268 269 269 269 269 269 270 272 274 276 278 280 282 284 286 287 288 290 290 291 292 293 294 295
285 285 285 285 285 286 287 288 289 290 291 290 289 286 283 280 276 273 270 269 270 271 271 272 272 274 275 277 279 280 281 283 284 285 286 287 288 289 290 291 292 294
289 289 288 289 290 290 291 291 291 291 291 290 288 286 284 282 280 278 276 275 274 274 275 275 276 277 279 280 281 281 282 283 284 285 286 286 287 288 289 290 292 293
292 292 292 292 292 292 292 291 291 291 290 289 288 286 285 284 283 282 282 281 281 281 281 281 281 282 283 283 284 284 285 285 286 287 288 289 289 290 290 291 292 293
292 292 292 292 292 292 292 291 291 291 290 290 289 288 287 286 285 284 284 284 285 286 286 287 288 289 289 289 289 289 289 289 289 290 290 290 291 291 291 291 292 292
290 291 291 291 291 291 291 291 291 291 290 290 290 289 289 288 288 287 287 287 287 288 289 290 291 293 293 293 292 292 291 291 291 291 290 290 290 290 290 290 291 291
286 287 288 288 289 289 289 289 289 290 290 290 290 290 291 291 291 291 291 291 290 290 291 292 293 294 294 294 293 293 292 292 291 290 290 289 289 289 289 289 290 290
285 285 285 286 286 286 287 287 287 288 288 288 289 290 291 292 293 293 293 294 293 293 293 293 294 294 294 294 293 293 292 291 290 290 289 289 289 289 289 289 290 290
285 285 284 284 285 285 285 285 286 287 287 288 288 289 290 291 292 292 293 293 293 293 293 293 294 294 294 294 293 293 292 291 290 290 290 290 290 291 291 291 291 291
286 285 284 284 284 284 284 285 286 287 288 289 289 290 291 292 292 292 293 293 293 292 292 292 293 294 294 294 294 294 294 293 292 292 291 291 291 291 292 292 292 292
285 284 283 283 283 284 285 286 287 288 289 289 289 290 291 291 291 292 292 293 294 293 293 293 294 295 295 296 296 296 296 295 294 294 293 293 293 293 293 293 292 292
284 284 283 284 284 285 286 287 288 289 289 289 289 289 290 291 291 292 292 293 294 294 294 294 295 296 296 296 297 297 297 297 296 296 295 294 294 294 294 293 293 292
287 287 288 289 289 290 291 291 292 293 293 293 293 293 293 293 293 293 293 294 294 294 295 295 295 295 294 295 295 295 295 295 295 295 295 295 295 295 294 293 292 292
293 293 294 294 295 295 295 295 295 295 295 295 295 294 294 293 293 292 292 292 292 292 292 292 292 291 291 291 291 291 291 291 291 291 291 291 292 292 292 292 292 291
296 296 296 296 296 296 297 297 297 297 297 296 296 296 296 296 295 295 294 294 293 292 292 291 290 288 287 286 286 286 286 285 286 286 286 286 286 286 287 288 289 290
297 297 297 298 298 298 298 299 299 299 299 299 299 299 299 299 299 298 298 297 297 296 295 293 292 290 288 286 284 283 283 282 282 282 283 282 282 282 282 283 285 286
Height
3170 3169 3169 3168 3168 3167 3166 3165 3164 3164 3163 3162 3161 3160 3159 3157 3156 3155 3154 3154 3153 3152 3151 3151 3150 3149 3148 3148 3147 3147 3146 3146 3145 3143 3142 3140 3139 3138 3136 3135 3133 3130
3167 3167 3166 3166 3165 3164 3163 3162 3161 3160 3159 3158 3157 3156 3155 3153 3152 3151 3150 3150 3149 3149 3148 3147 3146 3146 3145 3144 3144 3143 3142 3141 3140 3139 3137 3136 3134 3133 3131 3130 3127 3125
3164 3164 3163 3162 3161 3160 3159 3158 3158 3156 3155 3154 3153 3152 3151 3150 3148 3147 3147 3146 3145 3145 3144 3143 3143 3142 3141 3141 3140 3139 3138 3137 3136 3134 3132 3131 3130 3128 3126 3124 3122 3121
3160 3159 3159 3158 3157 3156 3155 3154 3153 3152 3151 3150 3149 3148 3147 3146 3144 3143 3142 3142 3141 3141 3140 3140 3139 3139 3138 3137 3136 3135 3134 3133 3132 3130 3128 3127 3126 3124 3122 3120 3117 3116
3157 3156 3155 3154 3153 3152 3151 3150 3148 3147 3146 3145 3144 3143 3142 3141 3140 3139 3138 3137 3137 3137 3136 3136 3135 3135 3134 3133 3132 3131 3130 3129 3128 3126 3124 3123 3122 3119 3118 3115 3113 3111
3153 3152 3151 3150 3148 3147 3146 3145 3144 3143 3142 3141 3140 3139 3138 3137 3136 3135 3134 3134 3133 3133 3133 3132 3132 3131 3130 3128 3127 3126 3125 3124 3123 3121 3120 3119 3117 3115 3113 3111 3108 3107
3149 3148 3147 3146 3144 3143 3141 3140 3139 3138 3137 3136 3135 3134 3133 3132 3132 3131 3130 3130 3129 3129 3129 3128 3128 3127 3126 3124 3123 3122 3121 3120 3118 3117 3115 3114 3112 3110 3109 3107 3104 3102
3145 3144 3143 3141 3140 3138 3137 3136 3135 3134 3133 3132 3131 3130 3129 3128 3128 3127 3126 3126 3126 3125 3125 3124 3124 3123 3121 3120 3118 3118 3117 3115 3113 3112 3110 3108 3107 3105 3104 3101 3099 3096
3141 3140 3139 3137 3136 3134 3133 3131 3130 3129 3128 3127 3126 3125 3124 3124 3123 3122 3122 3121 3121 3121 3121 3120 3119 3118 3117 3115 3114 3113 3112 3110 3108 3106 3104 3103 3101 3099 3098 3096 3093 3091
3137 3136 3134 3132 3131 3129 3128 3127 3126 3125 3124 3123 3122 3121 3120 3119 3119 3118 3117 3117 3117 3116 3116 3115 3114 3113 3111 3110 3109 3108 3106 3105 3103 3101 3099 3097 3095 3093 3091 3089 3087 3085
3132 3130 3129 3127 3126 3125 3124 3123 3122 3121 3120 3119 3118 3117 3116 3115 3114 3113 3113 3112 3112 3111 3110 3110 3108 3107 3106 3105 3104 3102 3100 3099 3097 3095 3093 3091 3089 3087 3085 3082 3080 3078
3127 3125 3124 3123 3122 3121 3120 3119 3118 3117 3116 3115 3114 3113 3112 3111 3110 3109 3108 3107 3107 3106 3105 3104 3103 3101 3100 3099 3098 3097 3095 3093 3091 3088 3086 3084 3082 3080 3078 3076 3074 3072
3122 3121 3120 3119 3118 3117 3116 3115 3114 3113 3112 3111 3110 3109 3108 3107 3106 3105 3104 3103 3102 3100 3099 3098 3097 3096 3095 3094 3092 3090 3089 3086 3084 3082 3080 3078 3076 3074 3072 3070 3068 3066
3117 3116 3115 3114 3113 3112 3112 3111 3110 3109 3108 3107 3106 3105 3104 3103 3102 3101 3099 3098 3097 3096 3094 3093 3092 3091 3089 3087 3086 3084 3082 3080 3078 3076 3074 3072 3069 3067 3066 3064 3062 3060
3113 3112 3111 3110 3109 3108 3107 3106 3105 3104 3103 3102 3101 3100 3099 3098 3097 3096 3095 3094 3092 3091 3090 3088 3087 3085 3083 3081 3079 3077 3076 3074 3071 3069 3067 3065 3063 3061 3059 3057 3056 3054
3109 3108 3107 3106 3105 3104 3103 3102 3101 3100 3098 3097 3096 3095 3094 3093 3092 3091 3089 3088 3087 3086 3084 3082 3081 3079 3077 3075 3072 3070 3068 3066 3065 3063 3060 3058 3056 3054 3053 3051 3049 3047
3106 3105 3103 3102 3101 3100 3099 3098 3096 3095 3094 3093 3091 3090 3089 3087 3086 3085 3084 3082 3081 3079 3078 3076 3074 3072 3070 3068 3065 3063 3061 3059 3057 3056 3054 3052 3049 3048 3046 3044 3042 3041
3102 3101 3099 3098 3097 3096 3094 3093 3092 3090 3089 3088 3086 3085 3084 3082 3081 3079 3078 3076 3074 3073 3071 3070 3068 3065 3063 3061 3058 3056 3054 3052 3050 3048 3046 3044 3043 3041 3039 3037 3036 3034
3097 3096 3095 3094 3092 3091 3090 3088 3087 3085 3084 3082 3081 3080 3078 3077 3075 3074 3072 3070 3068 3067 3065 3063 3061 3058 3056 3054 3051 3049 3047 3044 3042 3041 3039 3037 3036 3034 3032 3031 3029 3028
3092 3091 3090 3089 3088 3086 3085 3084 3082 3080 3079 3077 3076 3074 3073 3071 3070 3068 3066 3064 3062 3061 3059 3057 3055 3052 3050 3047 3045 3043 3040 3038 3035 3034 3032 3030 3029 3027 3025 3024 3022 3020
3087 3086 3085 3083 3082 3081 3080 3078 3077 3075 3073 3072 3071 3069 3067 3066 3064 3062 3061 3059 3057 3054 3053 3051 3049 3046 3044 3041 3039 3037 3034 3031 3029 3027 3025 3024 3022 3020 3018 3017 3015 3013
3082 3080 3079 3078 3077 3075 3074 3072 3071 3069 3068 3066 3065 3063 3061 3060 3058 3056 3055 3053 3051 3049 3047 3046 3044 3041 3039 3036 3033 3031 3029 3026 3023 3021 3019 3018 3016 3014 3012 3010 3008 3005
3076 3075 3073 3072 3071 3069 3068 3066 3065 3063 3062 3060 3058 3057 3056 3054 3053 3051 3049 3047 3046 3044 3041 3040 3039 3036 3033 3031 3028 3025 3022 3020 3017 3015 3013 3011 3010 3008 3005 3003 3001 2998
3070 3069 3067 3066 3064 3063 3062 3060 3059 3057 3056 3054 3052 3051 3049 3048 3046 3045 3044 3042 3040 3038 3035 3033 3032 3030 3027 3024 3021 3018 3015 3013 3011 3008 3007 3005 3003 3001 2999 2996 2994 2991
3064 3063 3061 3060 3058 3057 3055 3053 3052 3050 3048 3047 3045 3043 3041 3040 3038 3036 3036 3034 3032 3030 3028 3025 3024 3022 3019 3016 3013 3011 3007 3005 3003 3000 2999 2998 2995 2993 2991 2989 2986 2984
3058 3057 3055 3053 3052 3050 3048 3046 3044 3043 3041 3039 3037 3035 3033 3032 3030 3027 3026 3025 3023 3020 3019 3016 3014 3012 3010 3007 3004 3001 2998 2995 2993 2991 2989 2988 2986 2984 2982 2980 2978 2976